Weather History for Kansas City International, MO

Change the Weather History Date:

Wednesday, July 3, 2013

  Actual Average Record
Temperature  
Mean Temperature 72 °F 78 °F  
Max Temperature 85 °F 87 °F 103 °F (1954)
Min Temperature 58 °F 68 °F 53 °F (2014)
Degree Days  
Heating Degree Days 0 0  
Month to date heating degree days 0 0  
Since 1 June heating degree days 17 9  
Since 1 July heating degree days 0 0  
Cooling Degree Days 7 13  
Month to date cooling degree days 17 37  
Year to date cooling degree days 398 419  
Since 1 June cooling degree days 293 303  
Growing Degree Days 20 (Base 50)    
Moisture  
Dew Point 55 °F    
Average Humidity 58    
Maximum Humidity 84    
Minimum Humidity 32    
Precipitation  
Precipitation T in 0.16 in 1.75 in (1912)
Month to date precipitation T 0.49  
Year to date precipitation 18.05 19.55  
Snow  
Snow 0.00 in 0.00 in 0.00 in ()
Month to date snowfall 0.0 0.0  
Since 1 June snowfall 0.0 0.0  
Since 1 July snowfall 0.0 0.0  
Snow Depth 0.00 in    
Sea Level Pressure  
Sea Level Pressure 30.03 in    
Wind  
Wind Speed 7 mph (SW)    
Max Wind Speed 21 mph    
Max Gust Speed 25 mph    
Visibility 10 miles    
Events Rain , Thunderstorm    
T = Trace of Precipitation, MM = Missing Value Source: NWS Daily Summary

Daily Weather History Graph

Daily Weather History Graph

Search for Another Location

Airport:

Trip Planner

Search our weather history database for the weather conditions in past years. The results will help you decide how hot, cold, wet, or windy it might be!

Date:

Astronomy

Jul. 03, 2013 Rise Set
Actual Time 5:57 AM CDT 8:49 PM CDT
Civil Twilight 5:25 AM CDT 9:21 PM CDT
Nautical Twilight 4:44 AM CDT 10:01 PM CDT
Astronomical Twilight 3:58 AM CDT 10:47 PM CDT
Moon 2:34 AM CDT (7/3) 5:00 PM CDT (7/3)
Length of Visible Light 15h 56m
Length of Day
14h 51m
Waning Crescent, 18% of the Moon is Illuminated
Jul 3
Waning Crescent
Jul 8
New
Jul 15
First Quarter
Jul 22
Full
Jul 29
Last Quarter

Hourly Weather History & Observations

Time (CDT) Temp. Heat Index Dew Point Humidity Pressure Visibility Wind Dir Wind Speed Gust Speed Precip Events Conditions
12:53 AM 61.0 °F - 55.0 °F 81% 30.05 in 10.0 mi SSW 6.9 mph - N/A   Clear
1:53 AM 61.0 °F - 55.0 °F 81% 30.04 in 10.0 mi WSW 8.1 mph - N/A   Clear
2:53 AM 62.1 °F - 55.0 °F 78% 30.04 in 10.0 mi WSW 4.6 mph - N/A   Clear
3:53 AM 60.1 °F - 55.0 °F 83% 30.03 in 10.0 mi SW 6.9 mph - N/A   Clear
4:53 AM 60.1 °F - 54.0 °F 80% 30.03 in 10.0 mi WSW 6.9 mph - N/A   Clear
5:53 AM 60.1 °F - 54.0 °F 80% 30.04 in 10.0 mi SSW 5.8 mph - N/A   Partly Cloudy
6:53 AM 60.1 °F - 54.0 °F 80% 30.05 in 10.0 mi SW 4.6 mph - N/A   Partly Cloudy
7:53 AM 66.0 °F - 55.9 °F 70% 30.06 in 10.0 mi SW 4.6 mph - N/A   Partly Cloudy
8:53 AM 71.1 °F - 55.9 °F 59% 30.06 in 10.0 mi WSW 6.9 mph - N/A   Scattered Clouds
9:53 AM 75.0 °F - 57.0 °F 53% 30.06 in 10.0 mi West 5.8 mph - N/A   Scattered Clouds
10:53 AM 78.1 °F - 57.0 °F 48% 30.06 in 10.0 mi West 4.6 mph - N/A   Scattered Clouds
11:53 AM 81.0 °F 80.8 °F 55.9 °F 42% 30.05 in 10.0 mi West 5.8 mph - N/A   Scattered Clouds
12:53 PM 81.0 °F 80.7 °F 55.0 °F 41% 30.04 in 10.0 mi SW 3.5 mph - N/A   Scattered Clouds
1:53 PM 82.9 °F 81.9 °F 54.0 °F 37% 30.02 in 10.0 mi WNW 4.6 mph - N/A   Mostly Cloudy
2:53 PM 84.0 °F - 52.0 °F 33% 30.00 in 10.0 mi Variable 3.5 mph - N/A   Mostly Cloudy
3:53 PM 82.9 °F 81.8 °F 53.1 °F 36% 29.99 in 10.0 mi WSW 10.4 mph - N/A   Mostly Cloudy
4:17 PM 78.8 °F - 55.4 °F 44% 30.01 in 10.0 mi NNW 8.1 mph - N/A Thunderstorm Thunderstorm
4:53 PM 73.0 °F - 50.0 °F 44% 30.02 in 10.0 mi North 12.7 mph 20.7 mph 0.00 in Rain , Thunderstorm Light Thunderstorms and Rain
5:35 PM 69.8 °F - 55.4 °F 60% 30.03 in 10.0 mi NE 15.0 mph - 0.00 in Rain Light Rain
5:53 PM 70.0 °F - 54.0 °F 57% 30.01 in 10.0 mi ESE 8.1 mph - 0.00 in Rain Light Rain
6:53 PM 70.0 °F - 55.0 °F 59% 30.00 in 10.0 mi East 12.7 mph - 0.00 in Rain Light Rain
7:15 PM 66.2 °F - 57.2 °F 73% 30.03 in 10.0 mi SSE 17.3 mph - N/A   Mostly Cloudy
7:53 PM 66.9 °F - 57.9 °F 73% 30.03 in 10.0 mi SSE 12.7 mph - 0.00 in Rain Light Rain
8:53 PM 69.1 °F - 53.1 °F 57% 30.00 in 10.0 mi SSE 12.7 mph - 0.00 in   Mostly Cloudy
9:53 PM 64.9 °F - 53.1 °F 65% 30.00 in 10.0 mi SSE 5.8 mph - N/A   Mostly Cloudy
10:53 PM 64.0 °F - 52.0 °F 65% 30.00 in 10.0 mi SSW 5.8 mph - N/A   Partly Cloudy
11:53 PM 62.1 °F - 54.0 °F 75% 30.01 in 10.0 mi SW 6.9 mph - N/A   Clear